Вернуться в каталог

GLOBALSTAR M075

АктивенСвязьLEO
NORAD 37192·PAYLOAD·🇺🇸 United States

Запущен Oct 19, 2010 с Baikonur Cosmodrome

Loading…

Ближайшие Пролёты (ближайшие 24 часа)

TLE

СвежийSource: Space-Track

Эпоха: Sep 14, 2026, 06:34 UTC

1 37192U 10054E   26257.27389181 -.00000113  00000-0 -50272-4 0  9990
2 37192  51.9929 238.9446 0000439  70.8523 302.9827 12.62260485733196

Отслеживайте GLOBALSTAR M075 в реальном времени с AllMySat

Download on the App Store